Location: Unspecified
(0.0000°N, 0.0000°E)
Time: 23:42:53
(UTC+00:00)

S-56A Canister/Altair - Visible Passes

Search period start: 25 January 2021 00:00
Search period end: 04 February 2021 00:00
Orbit: 633 x 2499 km, 38.9° (Epoch: 25 January)

Date Brightness Start Highest point End Pass type
(mag) Time Alt. Az. Time Alt. Az. Time Alt. Az.
25 Jan 10.2 19:33:41 10° SSW 19:42:32 23° SSE 19:46:56 17° ESE visible
25 Jan 10.0 21:38:34 10° SW 21:44:22 35° SW 21:44:22 35° SW visible
26 Jan 10.5 19:00:19 10° SSW 19:09:05 21° SSE 19:16:02 10° ESE visible
26 Jan 9.4 21:04:56 10° SW 21:13:31 52° SSW 21:13:31 52° SSW visible
27 Jan 10.7 18:26:58 10° SSW 18:35:33 19° SSE 18:42:35 10° ESE visible
27 Jan 9.0 20:31:19 10° SW 20:42:44 61° SSE 20:42:44 61° SSE visible
27 Jan 11.2 22:39:45 10° WSW 22:40:10 11° W 22:40:10 11° W visible
28 Jan 9.1 19:57:42 10° SW 20:09:46 54° SE 20:12:00 46° ESE visible
28 Jan 10.6 22:05:36 10° WSW 22:09:26 22° W 22:09:26 22° W visible
29 Jan 9.6 19:24:07 10° SSW 19:36:30 48° SE 19:41:18 29° E visible
29 Jan 10.0 21:31:31 10° WSW 21:38:45 36° W 21:38:45 36° W visible
30 Jan 10.0 18:50:32 10° SSW 19:03:09 43° SE 19:10:38 16° E visible
30 Jan 9.3 20:57:29 10° WSW 21:08:05 55° WNW 21:08:05 55° WNW visible
31 Jan 10.2 18:17:00 10° SSW 18:29:41 39° SE 18:39:07 10° E visible
31 Jan 9.0 20:23:30 10° SW 20:35:51 67° NW 20:37:28 59° N visible
01 Feb 9.2 19:49:35 10° SW 20:02:46 79° NW 20:06:54 41° NE visible
01 Feb 10.9 22:01:29 10° W 22:04:21 14° WNW 22:04:21 14° WNW visible
02 Feb 9.4 19:15:44 10° SW 19:29:35 89° NW 19:36:20 24° NE visible
02 Feb 10.5 21:26:29 10° W 21:33:48 22° NW 21:33:48 22° NW visible
03 Feb 9.6 18:41:56 10° SW 18:56:17 81° SE 19:05:48 12° NE visible
03 Feb 10.2 20:51:47 10° W 21:01:18 28° NW 21:03:15 26° NNW visible
